| time (UTC) | temp C | wind direction | speed KPH | gust KPH | rain 1hr cm | rain 24hr cm | rain mn cm | humidity % | barometer mb |
| 20260502232223 | 14 | 0.0 | 0.0 | 0.00 | 0.00 | 0.00 | 63 | 1019.5 | |
| 20260502231220 | 14 | 0.0 | 0.0 | 0.00 | 0.00 | 0.00 | 63 | 1019.4 | |
| 20260502230233 | 15 | 0.0 | 0.0 | 0.00 | 0.00 | 0.00 | 63 | 1019.3 | |
| 20260502225209 | 15 | 0.0 | 0.0 | 0.00 | 0.00 | 0.00 | 62 | 1019.4 | |
| 20260502224244 | 15 | 0.0 | 0.0 | 0.00 | 0.00 | 0.00 | 61 | 1019.6 | |
| 20260502223158 | 15 | 0.0 | 1.6 | 0.00 | 0.00 | 0.00 | 60 | 1019.5 | |
| 20260502222149 | 15 | 0.0 | 0.0 | 0.00 | 0.00 | 0.00 | 60 | 1019.6 | |
| 20260502221145 | 15 | 0.0 | 0.0 | 0.00 | 0.00 | 0.00 | 60 | 1019.7 | |
| 20260502220137 | 15 | 315 | 0.0 | 1.6 | 0.00 | 0.00 | 0.00 | 60 | 1019.3 |
| 20260502215134 | 15 | 315 | 1.6 | 3.2 | 0.00 | 0.00 | 0.00 | 60 | 1019.7 |
| 20260502214132 | 14 | 0.0 | 0.0 | 0.00 | 0.00 | 0.00 | 60 | 1019.4 | |
| 20260502213124 | 14 | 0.0 | 0.0 | 0.00 | 0.00 | 0.00 | 60 | 1019.8 | |
| 20260502212121 | 15 | 0.0 | 0.0 | 0.00 | 0.00 | 0.00 | 60 | 1019.7 | |
| 20260502211111 | 16 | 0.0 | 0.0 | 0.00 | 0.00 | 0.00 | 58 | 1019.6 | |
| 20260502210108 | 16 | 0.0 | 0.0 | 0.00 | 0.00 | 0.00 | 57 | 1019.5 | |
| 20260502205104 | 16 | 0.0 | 0.0 | 0.00 | 0.00 | 0.00 | 55 | 1019.6 | |
| 20260502204101 | 16 | 0.0 | 0.0 | 0.00 | 0.00 | 0.00 | 55 | 1019.5 | |
| 20260502203117 | 16 | 0.0 | 0.0 | 0.00 | 0.00 | 0.00 | 54 | 1019.4 | |
| 20260502202048 | 16 | 0.0 | 0.0 | 0.00 | 0.00 | 0.00 | 53 | 1019.5 | |
| 20260502201044 | 17 | 0.0 | 0.0 | 0.00 | 0.00 | 0.00 | 53 | 1019.7 | |
| 20260502200042 | 17 | 0.0 | 0.0 | 0.00 | 0.00 | 0.00 | 52 | 1019.2 | |
| 20260502195036 | 17 | 0.0 | 0.0 | 0.00 | 0.00 | 0.00 | 52 | 1019.2 | |
| 20260502194033 | 17 | 0.0 | 0.0 | 0.00 | 0.00 | 0.00 | 51 | 1019.2 | |
| 20260502193026 | 17 | 0.0 | 0.0 | 0.00 | 0.00 | 0.00 | 50 | 1019.3 | |
| 20260502192020 | 18 | 0.0 | 0.0 | 0.00 | 0.00 | 0.00 | 52 | 1019.3 | |
| 20260502191015 | 18 | 0.0 | 0.0 | 0.00 | 0.00 | 0.00 | 50 | 1019.3 | |
| 20260502190012 | 19 | 0.0 | 0.0 | 0.00 | 0.00 | 0.00 | 49 | 1019.3 | |
| 20260502185009 | 20 | 0.0 | 0.0 | 0.00 | 0.00 | 0.00 | 48 | 1019.0 | |
| 20260502184005 | 20 | 0.0 | 0.0 | 0.00 | 0.00 | 0.00 | 40 | 1019.1 | |
| 20260502183124 | 20 | 0.0 | 0.0 | 0.00 | 0.00 | 0.00 | 40 | 1019.2 | |
| 20260502182020 | 21 | 0.0 | 0.0 | 0.00 | 0.00 | 0.00 | 39 | 1019.0 | |
| 20260502180955 | 21 | 0.0 | 0.0 | 0.00 | 0.00 | 0.00 | 38 | 1019.2 | |
| 20260502163911 | 22 | 315 | 0.0 | 1.6 | 0.00 | 0.00 | 0.00 | 33 | 1019.2 |
| 20260502162901 | 22 | 0.0 | 0.0 | 0.00 | 0.00 | 0.00 | 33 | 1019.2 | |
| 20260502161857 | 22 | 0.0 | 1.6 | 0.00 | 0.00 | 0.00 | 33 | 1019.6 | |
| 20260502160847 | 22 | 315 | 0.0 | 1.6 | 0.00 | 0.00 | 0.00 | 34 | 1019.5 |
| 20260502151823 | 22 | 0.0 | 0.0 | 0.00 | 0.00 | 0.00 | 34 | 1019.9 | |
| 20260502150813 | 22 | 292 | 3.2 | 6.4 | 0.00 | 0.00 | 0.00 | 33 | 1020.0 |
| 20260502130713 | 23 | 315 | 0.0 | 3.2 | 0.00 | 0.00 | 0.00 | 33 | 1021.5 |
| 20260502123720 | 23 | 112 | 0.0 | 1.6 | 0.00 | 0.00 | 0.00 | 35 | 1022.0 |
| 20260502122657 | 21 | 292 | 3.2 | 6.4 | 0.00 | 0.00 | 0.00 | 35 | 1022.2 |
| 20260502121648 | 22 | 112 | 0.0 | 3.2 | 0.00 | 0.00 | 0.00 | 35 | 1022.4 |
| 20260502120644 | 21 | 292 | 4.8 | 4.8 | 0.00 | 0.00 | 0.00 | 34 | 1022.4 |
| 20260502115640 | 22 | 135 | 4.8 | 6.4 | 0.00 | 0.00 | 0.00 | 36 | 1022.6 |
| 20260502114637 | 22 | 202 | 4.8 | 6.4 | 0.00 | 0.00 | 0.00 | 35 | 1022.8 |
| 20260502113633 | 22 | 0.0 | 0.0 | 0.00 | 0.00 | 0.00 | 35 | 1022.8 | |
| 20260502112629 | 22 | 292 | 1.6 | 3.2 | 0.00 | 0.00 | 0.00 | 35 | 1022.9 |
| 20260502111626 | 21 | 112 | 3.2 | 6.4 | 0.00 | 0.00 | 0.00 | 35 | 1023.2 |
| 20260502110623 | 22 | 292 | 1.6 | 3.2 | 0.00 | 0.00 | 0.00 | 36 | 1023.4 |
| 20260502105639 | 22 | 337 | 3.2 | 4.8 | 0.00 | 0.00 | 0.00 | 37 | 1023.5 |
| 20260502104616 | 22 | 0.0 | 1.6 | 0.00 | 0.00 | 0.00 | 37 | 1023.7 | |
| 20260502103612 | 22 | 292 | 3.2 | 4.8 | 0.00 | 0.00 | 0.00 | 36 | 1024.0 |
| 20260502102609 | 23 | 292 | 1.6 | 4.8 | 0.00 | 0.00 | 0.00 | 36 | 1024.0 |
| 20260502100609 | 22 | 292 | 0.0 | 1.6 | 0.00 | 0.00 | 0.00 | 38 | 1024.3 |
| 20260502090544 | 21 | 315 | 1.6 | 3.2 | 0.00 | 0.00 | 0.00 | 40 | 1024.9 |
| 20260502071451 | 16 | 112 | 1.6 | 3.2 | 0.00 | 0.00 | 0.00 | 50 | 1025.3 |
| 20260502070449 | 19 | 292 | 0.0 | 3.2 | 0.00 | 0.00 | 0.00 | 46 | 1025.3 |
| 20260502065437 | 17 | 292 | 0.0 | 1.6 | 0.00 | 0.00 | 0.00 | 53 | 1025.4 |
| 20260502064434 | 18 | 292 | 0.0 | 1.6 | 0.00 | 0.00 | 0.00 | 51 | 1025.2 |
| 20260502063433 | 18 | 292 | 0.0 | 1.6 | 0.00 | 0.00 | 0.00 | 53 | 1025.1 |
| 20260502062427 | 16 | 0.0 | 1.6 | 0.00 | 0.00 | 0.00 | 56 | 1025.4 | |
| 20260502061504 | 16 | 292 | 1.6 | 3.2 | 0.00 | 0.00 | 0.00 | 59 | 1025.0 |
| 20260502060433 | 15 | 292 | 1.6 | 4.8 | 0.00 | 0.00 | 0.00 | 61 | 1025.1 |
| 20260502055410 | 13 | 292 | 3.2 | 3.2 | 0.00 | 0.00 | 0.00 | 63 | 1025.0 |
| 20260502054426 | 13 | 292 | 3.2 | 4.8 | 0.00 | 0.00 | 0.00 | 63 | 1025.1 |
| 20260502053401 | 12 | 315 | 3.2 | 4.8 | 0.00 | 0.00 | 0.00 | 65 | 1025.2 |
| 20260502052417 | 12 | 315 | 1.6 | 3.2 | 0.00 | 0.00 | 0.00 | 66 | 1025.1 |
| 20260502051349 | 11 | 315 | 3.2 | 3.2 | 0.00 | 0.00 | 0.00 | 67 | 1025.0 |
| 20260502050348 | 11 | 315 | 1.6 | 3.2 | 0.00 | 0.00 | 0.00 | 69 | 1025.0 |
| 20260502045342 | 11 | 315 | 3.2 | 3.2 | 0.00 | 0.00 | 0.00 | 70 | 1024.9 |
| 20260502044339 | 10 | 315 | 3.2 | 4.8 | 0.00 | 0.00 | 0.00 | 71 | 1024.9 |
| 20260502043335 | 10 | 315 | 1.6 | 3.2 | 0.00 | 0.00 | 0.00 | 72 | 1024.7 |
| 20260502042326 | 10 | 315 | 0.0 | 1.6 | 0.00 | 0.00 | 0.00 | 73 | 1024.6 |
| 20260502041322 | 10 | 315 | 1.6 | 3.2 | 0.00 | 0.00 | 0.00 | 73 | 1024.9 |
| 20260502040318 | 10 | 315 | 1.6 | 3.2 | 0.00 | 0.00 | 0.00 | 74 | 1024.9 |
| 20260502035356 | 10 | 315 | 0.0 | 1.6 | 0.00 | 0.00 | 0.00 | 74 | 1024.7 |
| 20260502034311 | 10 | 315 | 0.0 | 1.6 | 0.00 | 0.00 | 0.00 | 73 | 1024.7 |
| 20260502033328 | 10 | 315 | 0.0 | 1.6 | 0.00 | 0.00 | 0.00 | 73 | 1024.7 |
| 20260502032306 | 10 | 0.0 | 0.0 | 0.00 | 0.00 | 0.00 | 72 | 1024.8 | |
| 20260502031304 | 10 | 0.0 | 0.0 | 0.00 | 0.00 | 0.00 | 72 | 1024.8 | |
| 20260502030257 | 10 | 315 | 1.6 | 3.2 | 0.00 | 0.00 | 0.00 | 71 | 1024.7 |
| 20260502025248 | 10 | 315 | 1.6 | 3.2 | 0.00 | 0.00 | 0.00 | 71 | 1024.6 |
| 20260502024244 | 10 | 315 | 4.8 | 6.4 | 0.00 | 0.00 | 0.00 | 70 | 1024.9 |
| 20260502023238 | 10 | 315 | 3.2 | 4.8 | 0.00 | 0.00 | 0.00 | 71 | 1024.8 |
| 20260502022235 | 10 | 315 | 4.8 | 4.8 | 0.00 | 0.00 | 0.00 | 71 | 1024.7 |
| 20260502021232 | 10 | 315 | 4.8 | 4.8 | 0.00 | 0.00 | 0.00 | 71 | 1024.9 |
| 20260502020250 | 10 | 315 | 1.6 | 3.2 | 0.00 | 0.00 | 0.00 | 71 | 1025.0 |
| 20260502015227 | 11 | 315 | 3.2 | 4.8 | 0.00 | 0.00 | 0.00 | 70 | 1024.7 |
| 20260502014225 | 11 | 315 | 3.2 | 4.8 | 0.00 | 0.00 | 0.00 | 69 | 1024.8 |
| 20260502013220 | 11 | 315 | 3.2 | 4.8 | 0.00 | 0.00 | 0.00 | 70 | 1024.8 |
| 20260502012238 | 11 | 315 | 1.6 | 3.2 | 0.00 | 0.00 | 0.00 | 70 | 1024.9 |
| 20260502011215 | 11 | 315 | 1.6 | 4.8 | 0.00 | 0.00 | 0.00 | 69 | 1024.6 |
| 20260502010208 | 11 | 315 | 3.2 | 4.8 | 0.00 | 0.00 | 0.00 | 70 | 1024.8 |
| 20260502005219 | 11 | 292 | 3.2 | 4.8 | 0.00 | 0.00 | 0.00 | 70 | 1024.8 |
| 20260502004156 | 11 | 315 | 3.2 | 3.2 | 0.00 | 0.00 | 0.00 | 69 | 1025.0 |
| 20260502003155 | 11 | 292 | 0.0 | 1.6 | 0.00 | 0.00 | 0.00 | 70 | 1024.9 |
| 20260502002148 | 11 | 292 | 1.6 | 3.2 | 0.00 | 0.00 | 0.00 | 69 | 1024.9 |
| 20260502001145 | 11 | 292 | 0.0 | 1.6 | 0.00 | 0.00 | 0.00 | 68 | 1024.9 |
| 20260502000155 | 11 | 292 | 0.0 | 1.6 | 0.00 | 0.00 | 0.00 | 68 | 1025.0 |
| 20260501235155 | 11 | 292 | 1.6 | 3.2 | 0.00 | 0.00 | 0.00 | 68 | 1025.2 |
| 20260501234122 | 11 | 292 | 1.6 | 3.2 | 0.00 | 0.00 | 0.00 | 68 | 1024.7 |
| 20260501233121 | 11 | 292 | 1.6 | 3.2 | 0.00 | 0.00 | 0.00 | 67 | 1025.0 |